Weather History for Port Aransas, TX

Change the Weather History Date:

Saturday, August 31, 2013

  Actual Average (KCRP) Record (KCRP)
Temperature  
Mean Temperature 84 °F 84 °F  
Max Temperature 88 °F 93 °F 103 °F (2000)
Min Temperature 79 °F 75 °F 67 °F (1915)
Degree Days  
Heating Degree Days 0 0  
Month to date heating degree days 0  
Since 1 June heating degree days 0  
Since 1 July heating degree days 0  
Cooling Degree Days 18 19  
Month to date cooling degree days 611  
Year to date cooling degree days 2561  
Since 1 June cooling degree days 1720  
Growing Degree Days 34 (Base 50)    
Moisture  
Dew Point 74 °F    
Average Humidity 72    
Maximum Humidity 88    
Minimum Humidity 61    
Precipitation  
Precipitation 0.00 in 0.16 in 2.13 in (1987)
Month to date precipitation 2.92  
Year to date precipitation 19.34  
Snow  
Snow 0.00 in - - ()
Month to date snowfall  
Since 1 June snowfall  
Since 1 July snowfall  
Snow Depth -    
Sea Level Pressure  
Sea Level Pressure 29.90 in    
Wind  
Wind Speed 8 mph (South)    
Max Wind Speed 13 mph    
Max Gust Speed 16 mph    
Visibility 10 miles    
Events      
T = Trace of Precipitation, MM = Missing Value Source: NWS Daily Summary

Daily Weather History Graph

Daily Weather History Graph

Search for Another Location

Airport:

Trip Planner

Search our weather history database for the weather conditions in past years. The results will help you decide how hot, cold, wet, or windy it might be!

Date:

Astronomy

Aug. 31, 2013 Rise Set
Actual Time 7:06 AM CDT 7:49 PM CDT
Civil Twilight 6:42 AM CDT 8:13 PM CDT
Nautical Twilight 6:14 AM CDT 8:41 PM CDT
Astronomical Twilight 5:46 AM CDT 9:10 PM CDT
Moon 2:51 AM CDT (8/31) 4:36 PM CDT (8/31)
Length of Visible Light 13h 30m
Length of Day
12h 43m
Waning Crescent, 21% of the Moon is Illuminated
Aug 31
Waning Crescent
Sep 5
New
Sep 12
First Quarter
Sep 19
Full
Sep 26
Last Quarter

Hourly Weather History & Observations

Time (CDT) Temp. Heat Index Dew Point Humidity Pressure Visibility Wind Dir Wind Speed Gust Speed Precip Events Conditions
12:15 AM 82.0 °F 87.7 °F 73.4 °F 75% 29.91 in 10.0 mi South 9.2 mph - N/A   Clear
12:35 AM 81.9 °F 87.0 °F 72.7 °F 74% 29.91 in 10.0 mi South 9.2 mph - N/A   Clear
12:55 AM 82.0 °F 87.2 °F 72.7 °F 73% 29.91 in 10.0 mi South 9.2 mph - N/A   Clear
1:15 AM 81.9 °F 87.3 °F 73.4 °F 75% 29.91 in 10.0 mi South 9.2 mph - N/A   Clear
1:35 AM 81.9 °F 87.3 °F 73.2 °F 75% 29.91 in 10.0 mi South 10.4 mph - N/A   Clear
1:55 AM 81.7 °F 87.1 °F 73.6 °F 76% 29.91 in 10.0 mi South 8.1 mph - N/A   Clear
2:15 AM 81.9 °F 87.5 °F 73.8 °F 76% 29.91 in 10.0 mi South 9.2 mph - N/A   Scattered Clouds
2:35 AM 81.7 °F 87.3 °F 73.8 °F 77% 29.91 in 10.0 mi South 11.5 mph - N/A   Mostly Cloudy
2:55 AM 81.7 °F 87.1 °F 73.6 °F 76% 29.91 in 10.0 mi South 10.4 mph - N/A   Mostly Cloudy
3:15 AM 81.7 °F 87.1 °F 73.4 °F 76% 29.91 in 10.0 mi South 10.4 mph - N/A   Scattered Clouds
3:35 AM 81.5 °F 86.7 °F 73.4 °F 76% 29.91 in 10.0 mi South 9.2 mph - N/A   Scattered Clouds
3:55 AM 81.5 °F 86.7 °F 73.4 °F 76% 29.91 in 10.0 mi SSW 6.9 mph - N/A   Mostly Cloudy
4:15 AM 81.5 °F 86.9 °F 73.6 °F 77% 29.91 in 10.0 mi SSW 9.2 mph - N/A   Mostly Cloudy
4:35 AM 81.3 °F 86.1 °F 72.9 °F 75% 29.91 in 10.0 mi SSW 9.2 mph - N/A   Scattered Clouds
4:55 AM 81.3 °F 86.1 °F 72.9 °F 75% 29.91 in 10.0 mi SSW 8.1 mph - N/A   Scattered Clouds
5:15 AM 80.2 °F 84.7 °F 73.6 °F 80% 29.91 in 10.0 mi SW 4.6 mph - N/A   Scattered Clouds
5:35 AM 79.7 °F - 74.1 °F 83% 29.91 in 10.0 mi SW 4.6 mph - N/A   Scattered Clouds
5:55 AM 79.3 °F - 74.3 °F 84% 29.91 in 10.0 mi WSW 4.6 mph - N/A   Clear
6:15 AM 79.2 °F - 74.5 °F 86% 29.91 in 10.0 mi Calm Calm - N/A   Clear
6:35 AM 79.0 °F - 74.7 °F 87% 29.92 in 10.0 mi Calm Calm - N/A   Clear
6:55 AM 79.3 °F - 75.2 °F 87% 29.93 in 10.0 mi SW 3.5 mph - N/A   Clear
7:15 AM 79.2 °F - 75.2 °F 88% 29.93 in 10.0 mi Calm Calm - N/A   Clear
7:35 AM 79.2 °F - 75.2 °F 88% 29.93 in 10.0 mi SW 4.6 mph - N/A   Clear
7:55 AM 79.7 °F - 75.2 °F 86% 29.93 in 10.0 mi SW 3.5 mph - N/A   Scattered Clouds
8:15 AM 80.8 °F 86.3 °F 74.7 °F 82% 29.94 in 10.0 mi SW 3.5 mph - N/A   Clear
8:35 AM 82.4 °F 89.0 °F 74.7 °F 77% 29.94 in 10.0 mi SW 5.8 mph - N/A   Clear
8:55 AM 83.3 °F 90.2 °F 74.1 °F 74% 29.94 in 10.0 mi SW 6.9 mph - N/A   Clear
9:15 AM 83.7 °F 91.0 °F 74.5 °F 74% 29.94 in 10.0 mi SW 5.8 mph - N/A   Clear
9:35 AM 84.2 °F 90.9 °F 73.6 °F 70% 29.94 in 10.0 mi WSW 5.8 mph - N/A   Scattered Clouds
9:55 AM 84.2 °F 91.6 °F 74.5 °F 72% 29.95 in 10.0 mi WSW 8.1 mph - N/A   Mostly Cloudy
10:15 AM 86.0 °F 94.2 °F 74.5 °F 68% 29.96 in 10.0 mi WSW 8.1 mph - N/A   Overcast
10:35 AM 86.7 °F 95.0 °F 74.1 °F 66% 29.95 in 10.0 mi West 8.1 mph - N/A   Overcast
10:55 AM 86.2 °F 93.8 °F 73.6 °F 66% 29.96 in 10.0 mi WSW 6.9 mph - N/A   Overcast
11:15 AM 87.6 °F 95.7 °F 73.6 °F 63% 29.95 in 10.0 mi SW 6.9 mph - N/A   Overcast
11:35 AM 88.2 °F 97.4 °F 74.5 °F 64% 29.95 in 10.0 mi South 10.4 mph - N/A   Mostly Cloudy
11:55 AM 87.3 °F 95.3 °F 73.9 °F 64% 29.95 in 10.0 mi South 6.9 mph - N/A   Clear
12:15 PM 87.8 °F 96.6 °F 74.1 °F 64% 29.95 in 10.0 mi South 10.4 mph - N/A   Clear
12:35 PM 88.0 °F 97.0 °F 74.3 °F 64% 29.94 in 10.0 mi South 8.1 mph - N/A   Clear
12:55 PM 87.4 °F 96.2 °F 74.5 °F 65% 29.93 in 10.0 mi SSE 11.5 mph - N/A   Clear
1:15 PM 88.0 °F 96.5 °F 74.1 °F 63% 29.93 in 10.0 mi South 9.2 mph - N/A   Clear
1:35 PM 87.6 °F 96.2 °F 74.3 °F 64% 29.93 in 10.0 mi SSE 10.4 mph - N/A   Clear
1:55 PM 88.0 °F 97.5 °F 74.7 °F 65% 29.92 in 10.0 mi South 9.2 mph - N/A   Clear
2:15 PM 87.3 °F 95.8 °F 74.3 °F 65% 29.91 in 10.0 mi SSE 9.2 mph - N/A   Clear
2:35 PM 88.3 °F 97.4 °F 74.1 °F 63% 29.91 in 10.0 mi SSE 10.4 mph - N/A   Clear
2:55 PM 87.8 °F 96.6 °F 74.1 °F 64% 29.89 in 10.0 mi SSE 9.2 mph - N/A   Clear
3:15 PM 88.0 °F 97.0 °F 74.3 °F 64% 29.89 in 10.0 mi SSE 10.4 mph - N/A   Clear
3:35 PM 87.8 °F 96.6 °F 74.5 °F 64% 29.88 in 10.0 mi SSE 11.5 mph - N/A   Clear
3:55 PM 87.6 °F 96.2 °F 74.1 °F 64% 29.87 in 10.0 mi SE 11.5 mph - N/A   Clear
4:15 PM 87.8 °F 96.1 °F 73.9 °F 63% 29.87 in 10.0 mi SE 9.2 mph - N/A   Clear
4:35 PM 87.8 °F 95.6 °F 73.2 °F 62% 29.87 in 10.0 mi SE 12.7 mph - N/A   Clear
4:55 PM 88.2 °F 96.0 °F 73.0 °F 61% 29.86 in 10.0 mi SSE 11.5 mph - N/A   Clear
5:15 PM 87.4 °F 95.3 °F 73.4 °F 63% 29.86 in 10.0 mi SE 11.5 mph - N/A   Clear
5:35 PM 87.1 °F 94.5 °F 73.0 °F 63% 29.86 in 10.0 mi SE 10.4 mph 16.1 mph N/A   Clear
5:55 PM 87.1 °F 94.5 °F 73.2 °F 63% 29.86 in 10.0 mi SE 10.4 mph - N/A   Clear
6:15 PM 85.6 °F 93.8 °F 74.5 °F 69% 29.85 in 10.0 mi SSE 10.4 mph - N/A   Clear
6:35 PM 85.8 °F 93.4 °F 73.9 °F 67% 29.85 in 10.0 mi SE 9.2 mph - N/A   Clear
6:55 PM 84.9 °F 92.1 °F 73.6 °F 69% 29.85 in 10.0 mi SE 9.2 mph - N/A   Scattered Clouds
7:15 PM 84.4 °F 91.0 °F 73.4 °F 69% 29.85 in 10.0 mi SSE 10.4 mph 16.1 mph N/A   Scattered Clouds
7:35 PM 83.5 °F 89.7 °F 73.0 °F 71% 29.85 in 10.0 mi SSE 10.4 mph - N/A   Scattered Clouds
7:55 PM 83.3 °F 89.3 °F 73.2 °F 71% 29.86 in 10.0 mi SSE 9.2 mph - N/A   Clear
8:15 PM 82.9 °F 88.8 °F 73.2 °F 72% 29.86 in 10.0 mi SE 10.4 mph - N/A   Clear
8:35 PM 83.1 °F 89.5 °F 73.6 °F 73% 29.86 in 10.0 mi SE 9.2 mph - N/A   Clear
8:55 PM 82.9 °F 89.1 °F 73.4 °F 73% 29.86 in 10.0 mi SE 8.1 mph - N/A   Clear
9:15 PM 82.9 °F 89.1 °F 73.6 °F 73% 29.87 in 10.0 mi SE 9.2 mph - N/A   Clear
9:35 PM 82.8 °F 89.2 °F 73.9 °F 75% 29.88 in 10.0 mi SSE 6.9 mph - N/A   Mostly Cloudy
9:55 PM 82.4 °F 88.4 °F 73.8 °F 75% 29.88 in 10.0 mi SSE 10.4 mph - N/A   Mostly Cloudy
10:15 PM 82.4 °F 88.4 °F 73.6 °F 75% 29.88 in 10.0 mi SSE 8.1 mph - N/A   Scattered Clouds
10:35 PM 82.4 °F 88.2 °F 73.4 °F 74% 29.88 in 10.0 mi SSE 8.1 mph - N/A   Clear
10:55 PM 82.4 °F 88.4 °F 73.8 °F 75% 29.88 in 10.0 mi SSE 6.9 mph - N/A   Scattered Clouds
11:15 PM 82.6 °F 88.8 °F 73.8 °F 75% 29.88 in 10.0 mi SSE 9.2 mph - N/A   Scattered Clouds
11:35 PM 82.6 °F 88.8 °F 73.8 °F 75% 29.88 in 10.0 mi SSE 10.4 mph - N/A   Scattered Clouds
11:55 PM 82.6 °F 88.8 °F 74.1 °F 75% 29.88 in 10.0 mi SSE 10.4 mph - N/A   Scattered Clouds